Time,TemperatureF,DewpointF,PressureIn,WindDirection,WindDirectionDegrees,WindSpeedMPH,WindSpeedGustMPH,Humidity,HourlyPrecipIn,Conditions,Clouds,dailyrainin,SoftwareType,DateUTC
2013-02-28 00:01:00,37.0,26.0,30.00,West,273,4.0,-999.0,65,-99.99,,,-99.99,,2013-02-28 06:01:00,
2013-02-28 00:11:00,37.0,26.0,30.00,West,273,4.0,-999.0,65,-99.99,,,-99.99,,2013-02-28 06:11:00,
2013-02-28 00:22:00,37.0,26.0,30.00,WNW,302,3.0,-999.0,65,-99.99,,,-99.99,,2013-02-28 06:22:00,
2013-02-28 00:32:00,37.0,27.0,30.00,NW,313,3.0,-999.0,66,-99.99,,,-99.99,,2013-02-28 06:32:00,
2013-02-28 00:42:00,37.0,27.0,30.00,NW,313,3.0,-999.0,66,-99.99,,,-99.99,,2013-02-28 06:42:00,
2013-02-28 00:51:00,37.0,27.0,30.00,West,281,2.0,-999.0,67,-99.99,,,-99.99,,2013-02-28 06:51:00,
2013-02-28 01:01:00,36.0,27.0,30.00,WSW,252,1.0,-999.0,69,-99.99,,,-99.99,,2013-02-28 07:01:00,
2013-02-28 01:11:00,36.0,27.0,30.00,WSW,252,1.0,-999.0,69,-99.99,,,-99.99,,2013-02-28 07:11:00,
2013-02-28 01:21:00,36.0,27.0,30.00,WNW,285,2.0,-999.0,70,-99.99,,,-99.99,,2013-02-28 07:21:00,
2013-02-28 01:32:00,36.0,27.0,30.00,West,269,2.0,-999.0,70,-99.99,,,-99.99,,2013-02-28 07:32:00,
2013-02-28 01:41:00,36.0,27.0,30.00,West,269,2.0,-999.0,70,-99.99,,,-99.99,,2013-02-28 07:41:00,
2013-02-28 01:51:00,36.0,27.0,30.00,West,267,2.0,-999.0,70,-99.99,,,-99.99,,2013-02-28 07:51:00,
2013-02-28 02:01:00,35.0,27.0,30.01,NW,304,1.0,-999.0,71,-99.99,,,-99.99,,2013-02-28 08:01:00,
2013-02-28 02:11:00,35.0,27.0,30.01,NW,304,1.0,-999.0,71,-99.99,,,-99.99,,2013-02-28 08:11:00,
2013-02-28 02:22:00,35.0,27.0,30.01,WNW,295,1.0,-999.0,72,-99.99,,,-99.99,,2013-02-28 08:22:00,
2013-02-28 02:32:00,34.0,27.0,30.01,WNW,295,1.0,-999.0,74,-99.99,,,-99.99,,2013-02-28 08:32:00,
2013-02-28 02:42:00,34.0,27.0,30.01,WNW,295,1.0,-999.0,74,-99.99,,,-99.99,,2013-02-28 08:42:00,
2013-02-28 02:52:00,34.0,27.0,30.01,WNW,295,1.0,-999.0,74,-99.99,,,-99.99,,2013-02-28 08:52:00,
2013-02-28 03:03:00,34.0,26.0,30.01,NW,310,1.0,-999.0,73,-99.99,,,-99.99,,2013-02-28 09:03:00,
2013-02-28 03:11:00,34.0,26.0,30.01,NW,310,1.0,-999.0,73,-99.99,,,-99.99,,2013-02-28 09:11:00,
2013-02-28 03:22:00,34.0,26.0,30.01,NW,304,2.0,-999.0,71,-99.99,,,-99.99,,2013-02-28 09:22:00,
2013-02-28 03:32:00,34.0,25.0,30.01,WNW,289,2.0,-999.0,70,-99.99,,,-99.99,,2013-02-28 09:32:00,
2013-02-28 03:42:00,34.0,25.0,30.01,WNW,289,2.0,-999.0,70,-99.99,,,-99.99,,2013-02-28 09:42:00,
2013-02-28 03:52:00,34.0,26.0,30.01,WNW,294,1.0,-999.0,72,-99.99,,,-99.99,,2013-02-28 09:52:00,
2013-02-28 04:02:00,34.0,26.0,30.02,WNW,294,1.0,-999.0,71,-99.99,,,-99.99,,2013-02-28 10:02:00,
2013-02-28 04:11:00,33.0,25.0,30.02,WNW,294,0.0,-999.0,72,-99.99,,,-99.99,,2013-02-28 10:11:00,
2013-02-28 04:22:00,33.0,25.0,30.02,WNW,294,0.0,-999.0,72,-99.99,,,-99.99,,2013-02-28 10:22:00,
2013-02-28 04:32:00,33.0,25.0,30.03,WNW,291,1.0,-999.0,73,-99.99,,,-99.99,,2013-02-28 10:32:00,
2013-02-28 04:42:00,33.0,25.0,30.03,WNW,291,1.0,-999.0,73,-99.99,,,-99.99,,2013-02-28 10:42:00,
2013-02-28 04:52:00,33.0,25.0,30.03,WNW,287,2.0,-999.0,73,-99.99,,,-99.99,,2013-02-28 10:52:00,
2013-02-28 05:01:00,33.0,26.0,30.03,West,267,1.0,-999.0,74,-99.99,,,-99.99,,2013-02-28 11:01:00,
2013-02-28 05:11:00,33.0,26.0,30.03,West,267,1.0,-999.0,74,-99.99,,,-99.99,,2013-02-28 11:11:00,
2013-02-28 05:22:00,33.0,26.0,30.03,West,277,1.0,-999.0,74,-99.99,,,-99.99,,2013-02-28 11:22:00,
2013-02-28 05:32:00,33.0,26.0,30.03,West,273,1.0,-999.0,75,-99.99,,,-99.99,,2013-02-28 11:32:00,
2013-02-28 05:42:00,33.0,26.0,30.03,West,273,1.0,-999.0,75,-99.99,,,-99.99,,2013-02-28 11:42:00,
2013-02-28 05:52:00,32.0,25.0,30.05,WNW,288,1.0,-999.0,76,-99.99,,,-99.99,,2013-02-28 11:52:00,
2013-02-28 06:02:00,32.0,26.0,30.05,WNW,288,0.0,-999.0,77,-99.99,,,-99.99,,2013-02-28 12:02:00,
2013-02-28 06:11:00,32.0,26.0,30.05,WNW,288,0.0,-999.0,77,-99.99,,,-99.99,,2013-02-28 12:11:00,
2013-02-28 06:22:00,32.0,26.0,30.05,WNW,288,0.0,-999.0,77,-99.99,,,-99.99,,2013-02-28 12:22:00,
2013-02-28 06:32:00,31.0,25.0,30.05,WNW,288,1.0,-999.0,78,-99.99,,,-99.99,,2013-02-28 12:32:00,
2013-02-28 06:42:00,31.0,25.0,30.05,WNW,288,1.0,-999.0,78,-99.99,,,-99.99,,2013-02-28 12:42:00,
2013-02-28 06:52:00,32.0,26.0,30.06,WNW,282,2.0,-999.0,78,-99.99,,,-99.99,,2013-02-28 12:52:00,
2013-02-28 07:02:00,32.0,26.0,30.05,WNW,288,2.0,-999.0,78,-99.99,,,-99.99,,2013-02-28 13:02:00,
2013-02-28 07:11:00,32.0,26.0,30.06,WNW,294,1.0,-999.0,77,-99.99,,,-99.99,,2013-02-28 13:11:00,
2013-02-28 07:22:00,32.0,26.0,30.06,WNW,294,1.0,-999.0,77,-99.99,,,-99.99,,2013-02-28 13:22:00,
2013-02-28 07:32:00,33.0,27.0,30.07,West,268,1.0,-999.0,77,-99.99,,,-99.99,,2013-02-28 13:32:00,
2013-02-28 07:42:00,33.0,27.0,30.07,West,268,1.0,-999.0,77,-99.99,,,-99.99,,2013-02-28 13:42:00,
2013-02-28 07:52:00,33.0,26.0,30.08,West,273,3.0,-999.0,74,-99.99,,,-99.99,,2013-02-28 13:52:00,
2013-02-28 08:01:00,34.0,26.0,30.08,WNW,282,5.0,-999.0,73,-99.99,,,-99.99,,2013-02-28 14:01:00,
2013-02-28 08:11:00,34.0,26.0,30.08,WSW,245,4.0,-999.0,73,-99.99,,,-99.99,,2013-02-28 14:11:00,
2013-02-28 08:22:00,34.0,26.0,30.08,WSW,245,4.0,-999.0,73,-99.99,,,-99.99,,2013-02-28 14:22:00,
2013-02-28 08:32:00,34.0,26.0,30.09,West,268,3.0,-999.0,73,-99.99,,,-99.99,,2013-02-28 14:32:00,
2013-02-28 08:42:00,34.0,26.0,30.10,West,269,4.0,-999.0,71,-99.99,,,-99.99,,2013-02-28 14:42:00,
2013-02-28 08:52:00,34.0,26.0,30.10,West,269,4.0,-999.0,71,-99.99,,,-99.99,,2013-02-28 14:52:00,
2013-02-28 09:02:00,35.0,27.0,30.10,West,279,5.0,-999.0,71,-99.99,,,-99.99,,2013-02-28 15:02:00,
2013-02-28 09:11:00,35.0,27.0,30.10,West,279,5.0,-999.0,71,-99.99,,,-99.99,,2013-02-28 15:11:00,
2013-02-28 09:21:00,35.0,26.0,30.10,West,263,2.0,-999.0,70,-99.99,,,-99.99,,2013-02-28 15:21:00,
2013-02-28 09:32:00,36.0,27.0,30.10,WNW,300,4.0,-999.0,70,-99.99,,,-99.99,,2013-02-28 15:32:00,
2013-02-28 09:42:00,36.0,27.0,30.10,WNW,300,4.0,-999.0,70,-99.99,,,-99.99,,2013-02-28 15:42:00,
2013-02-28 09:52:00,36.0,26.0,30.11,WNW,292,4.0,-999.0,68,-99.99,,,-99.99,,2013-02-28 15:52:00,
2013-02-28 10:01:00,36.0,27.0,30.11,West,271,6.0,-999.0,69,-99.99,,,-99.99,,2013-02-28 16:01:00,
2013-02-28 10:11:00,36.0,27.0,30.11,West,271,6.0,-999.0,69,-99.99,,,-99.99,,2013-02-28 16:11:00,
2013-02-28 10:22:00,36.0,26.0,30.11,NW,304,6.0,-999.0,68,-99.99,,,-99.99,,2013-02-28 16:22:00,
2013-02-28 10:32:00,37.0,27.0,30.11,West,276,5.0,-999.0,66,-99.99,,,-99.99,,2013-02-28 16:32:00,
2013-02-28 10:42:00,37.0,27.0,30.11,West,276,5.0,-999.0,66,-99.99,,,-99.99,,2013-02-28 16:42:00,
2013-02-28 10:52:00,37.0,27.0,30.11,NW,306,4.0,-999.0,67,-99.99,,,-99.99,,2013-02-28 16:52:00,
2013-02-28 11:02:00,37.0,27.0,30.11,WNW,292,6.0,-999.0,67,-99.99,,,-99.99,,2013-02-28 17:02:00,
2013-02-28 11:12:00,38.0,27.0,30.11,NW,317,5.0,-999.0,65,-99.99,,,-99.99,,2013-02-28 17:12:00,
2013-02-28 11:22:00,38.0,27.0,30.11,NW,317,5.0,-999.0,65,-99.99,,,-99.99,,2013-02-28 17:22:00,
2013-02-28 11:32:00,38.0,27.0,30.11,West,269,6.0,-999.0,65,-99.99,,,-99.99,,2013-02-28 17:32:00,
2013-02-28 11:42:00,38.0,27.0,30.11,West,269,6.0,-999.0,65,-99.99,,,-99.99,,2013-02-28 17:42:00,
2013-02-28 11:52:00,39.0,28.0,30.11,NW,309,5.0,-999.0,64,-99.99,,,-99.99,,2013-02-28 17:52:00,
2013-02-28 12:02:00,39.0,27.0,30.11,SW,236,4.0,-999.0,62,-99.99,,,-99.99,,2013-02-28 18:02:00,
2013-02-28 12:11:00,39.0,27.0,30.11,SW,236,4.0,-999.0,62,-99.99,,,-99.99,,2013-02-28 18:11:00,
2013-02-28 12:22:00,39.0,27.0,30.11,SW,236,4.0,-999.0,62,-99.99,,,-99.99,,2013-02-28 18:22:00,
2013-02-28 12:32:00,39.0,27.0,30.11,NW,305,4.0,-999.0,62,-99.99,,,-99.99,,2013-02-28 18:32:00,
2013-02-28 12:42:00,39.0,27.0,30.11,NW,305,4.0,-999.0,62,-99.99,,,-99.99,,2013-02-28 18:42:00,
2013-02-28 12:52:00,40.0,28.0,30.11,WNW,292,6.0,-999.0,62,-99.99,,,-99.99,,2013-02-28 18:52:00,
2013-02-28 13:01:00,40.0,27.0,30.11,WNW,282,6.0,-999.0,60,-99.99,,,-99.99,,2013-02-28 19:01:00,
2013-02-28 13:11:00,40.0,27.0,30.11,WNW,282,6.0,-999.0,60,-99.99,,,-99.99,,2013-02-28 19:11:00,
2013-02-28 13:21:00,41.0,28.0,30.11,WNW,300,6.0,-999.0,60,-99.99,,,-99.99,,2013-02-28 19:21:00,
2013-02-28 13:32:00,40.0,26.0,30.11,West,271,7.0,-999.0,58,-99.99,,,-99.99,,2013-02-28 19:32:00,
2013-02-28 13:42:00,40.0,26.0,30.11,West,271,7.0,-999.0,58,-99.99,,,-99.99,,2013-02-28 19:42:00,
2013-02-28 13:51:00,41.0,28.0,30.10,West,271,6.0,-999.0,60,-99.99,,,-99.99,,2013-02-28 19:51:00,
2013-02-28 14:01:00,40.0,27.0,30.10,WNW,300,5.0,-999.0,59,-99.99,,,-99.99,,2013-02-28 20:01:00,
2013-02-28 14:12:00,40.0,27.0,30.10,WNW,300,5.0,-999.0,59,-99.99,,,-99.99,,2013-02-28 20:12:00,
2013-02-28 14:22:00,41.0,28.0,30.10,West,272,6.0,-999.0,60,-99.99,,,-99.99,,2013-02-28 20:22:00,
2013-02-28 14:32:00,40.0,27.0,30.11,West,259,8.0,-999.0,60,-99.99,,,-99.99,,2013-02-28 20:32:00,
2013-02-28 14:42:00,40.0,27.0,30.11,West,259,8.0,-999.0,60,-99.99,,,-99.99,,2013-02-28 20:42:00,
2013-02-28 14:52:00,40.0,27.0,30.11,WNW,294,8.0,-999.0,59,-99.99,,,-99.99,,2013-02-28 20:52:00,
2013-02-28 15:02:00,41.0,27.0,30.11,NW,308,8.0,-999.0,57,-99.99,,,-99.99,,2013-02-28 21:02:00,
2013-02-28 15:11:00,41.0,27.0,30.11,NW,308,8.0,-999.0,57,-99.99,,,-99.99,,2013-02-28 21:11:00,
2013-02-28 15:22:00,40.0,26.0,30.11,NW,304,6.0,-999.0,58,-99.99,,,-99.99,,2013-02-28 21:22:00,
2013-02-28 15:32:00,40.0,26.0,30.11,West,274,8.0,-999.0,58,-99.99,,,-99.99,,2013-02-28 21:32:00,
2013-02-28 15:42:00,40.0,26.0,30.11,West,274,8.0,-999.0,58,-99.99,,,-99.99,,2013-02-28 21:42:00,
2013-02-28 15:52:00,40.0,26.0,30.11,West,266,8.0,-999.0,58,-99.99,,,-99.99,,2013-02-28 21:52:00,
2013-02-28 16:01:00,40.0,27.0,30.11,NW,321,7.0,-999.0,59,-99.99,,,-99.99,,2013-02-28 22:01:00,
2013-02-28 16:11:00,40.0,27.0,30.11,NW,321,7.0,-999.0,59,-99.99,,,-99.99,,2013-02-28 22:11:00,
2013-02-28 16:21:00,40.0,26.0,30.12,West,265,6.0,-999.0,58,-99.99,,,-99.99,,2013-02-28 22:21:00,
2013-02-28 16:32:00,39.0,25.0,30.12,WNW,292,4.0,-999.0,58,-99.99,,,-99.99,,2013-02-28 22:32:00,
2013-02-28 16:42:00,39.0,25.0,30.12,WNW,292,4.0,-999.0,58,-99.99,,,-99.99,,2013-02-28 22:42:00,
2013-02-28 16:52:00,39.0,26.0,30.12,West,270,5.0,-999.0,60,-99.99,,,-99.99,,2013-02-28 22:52:00,
2013-02-28 17:01:00,38.0,25.0,30.12,West,281,5.0,-999.0,60,-99.99,,,-99.99,,2013-02-28 23:01:00,
2013-02-28 17:11:00,38.0,26.0,30.12,WNW,290,3.0,-999.0,62,-99.99,,,-99.99,,2013-02-28 23:11:00,
2013-02-28 17:22:00,38.0,26.0,30.12,WNW,290,3.0,-999.0,62,-99.99,,,-99.99,,2013-02-28 23:22:00,
2013-02-28 17:32:00,37.0,25.0,30.12,WNW,296,4.0,-999.0,61,-99.99,,,-99.99,,2013-02-28 23:32:00,
2013-02-28 17:42:00,37.0,25.0,30.12,WNW,296,4.0,-999.0,61,-99.99,,,-99.99,,2013-02-28 23:42:00,
2013-02-28 17:52:00,37.0,26.0,30.12,WNW,294,2.0,-999.0,64,-99.99,,,-99.99,,2013-02-28 23:52:00,
2013-02-28 18:01:00,37.0,26.0,30.13,WNW,287,3.0,-999.0,65,-99.99,,,-99.99,,2013-03-01 00:01:00,
2013-02-28 18:11:00,37.0,26.0,30.13,WNW,287,3.0,-999.0,65,-99.99,,,-99.99,,2013-03-01 00:11:00,
2013-02-28 18:22:00,36.0,25.0,30.14,WNW,286,3.0,-999.0,65,-99.99,,,-99.99,,2013-03-01 00:22:00,
2013-02-28 18:32:00,36.0,26.0,30.14,West,274,2.0,-999.0,67,-99.99,,,-99.99,,2013-03-01 00:32:00,
2013-02-28 18:42:00,36.0,26.0,30.14,West,274,2.0,-999.0,67,-99.99,,,-99.99,,2013-03-01 00:42:00,
2013-02-28 18:51:00,36.0,26.0,30.14,West,274,2.0,-999.0,67,-99.99,,,-99.99,,2013-03-01 00:51:00,
2013-02-28 19:01:00,35.0,24.0,30.16,WNW,284,3.0,-999.0,65,-99.99,,,-99.99,,2013-03-01 01:01:00,
2013-02-28 19:11:00,35.0,24.0,30.16,West,267,2.0,-999.0,65,-99.99,,,-99.99,,2013-03-01 01:11:00,
2013-02-28 19:21:00,35.0,24.0,30.16,West,267,2.0,-999.0,65,-99.99,,,-99.99,,2013-03-01 01:21:00,
2013-02-28 19:32:00,35.0,24.0,30.16,West,278,3.0,-999.0,65,-99.99,,,-99.99,,2013-03-01 01:32:00,
2013-02-28 19:42:00,35.0,24.0,30.16,West,278,3.0,-999.0,65,-99.99,,,-99.99,,2013-03-01 01:42:00,
2013-02-28 19:51:00,35.0,24.0,30.16,WSW,258,3.0,-999.0,65,-99.99,,,-99.99,,2013-03-01 01:51:00,
2013-02-28 20:01:00,35.0,25.0,30.17,WNW,282,1.0,-999.0,66,-99.99,,,-99.99,,2013-03-01 02:01:00,
2013-02-28 20:11:00,35.0,25.0,30.17,West,270,2.0,-999.0,66,-99.99,,,-99.99,,2013-03-01 02:11:00,
2013-02-28 20:21:00,35.0,25.0,30.17,West,270,2.0,-999.0,66,-99.99,,,-99.99,,2013-03-01 02:21:00,
2013-02-28 20:32:00,34.0,24.0,30.17,WSW,258,4.0,-999.0,66,-99.99,,,-99.99,,2013-03-01 02:32:00,
2013-02-28 20:42:00,34.0,24.0,30.17,WSW,258,4.0,-999.0,66,-99.99,,,-99.99,,2013-03-01 02:42:00,
2013-02-28 20:52:00,34.0,23.0,30.16,West,281,3.0,-999.0,65,-99.99,,,-99.99,,2013-03-01 02:52:00,
2013-02-28 21:02:00,34.0,23.0,30.16,West,266,1.0,-999.0,65,-99.99,,,-99.99,,2013-03-01 03:02:00,
2013-02-28 21:11:00,34.0,23.0,30.16,West,266,1.0,-999.0,65,-99.99,,,-99.99,,2013-03-01 03:11:00,
2013-02-28 21:21:00,34.0,24.0,30.16,WNW,292,1.0,-999.0,66,-99.99,,,-99.99,,2013-03-01 03:21:00,
2013-02-28 21:32:00,34.0,24.0,30.16,WNW,295,2.0,-999.0,66,-99.99,,,-99.99,,2013-03-01 03:32:00,
2013-02-28 21:42:00,34.0,24.0,30.16,WNW,295,2.0,-999.0,66,-99.99,,,-99.99,,2013-03-01 03:42:00,
2013-02-28 21:51:00,34.0,24.0,30.16,West,281,1.0,-999.0,67,-99.99,,,-99.99,,2013-03-01 03:51:00,
2013-02-28 22:01:00,33.0,23.0,30.16,WNW,287,0.0,-999.0,67,-99.99,,,-99.99,,2013-03-01 04:01:00,
2013-02-28 22:11:00,33.0,23.0,30.16,WNW,287,0.0,-999.0,67,-99.99,,,-99.99,,2013-03-01 04:11:00,
2013-02-28 22:21:00,33.0,23.0,30.16,West,281,1.0,-999.0,67,-99.99,,,-99.99,,2013-03-01 04:21:00,
2013-02-28 22:32:00,33.0,23.0,30.16,WNW,287,1.0,-999.0,67,-99.99,,,-99.99,,2013-03-01 04:32:00,
2013-02-28 22:42:00,33.0,23.0,30.16,WNW,287,1.0,-999.0,67,-99.99,,,-99.99,,2013-03-01 04:42:00,
2013-02-28 22:52:00,33.0,23.0,30.16,WNW,287,1.0,-999.0,67,-99.99,,,-99.99,,2013-03-01 04:52:00,
2013-02-28 23:02:00,34.0,24.0,30.15,WNW,303,3.0,-999.0,67,-99.99,,,-99.99,,2013-03-01 05:02:00,
2013-02-28 23:10:00,33.0,23.0,30.15,NW,313,3.0,-999.0,67,-99.99,,,-99.99,,2013-03-01 05:10:00,
2013-02-28 23:11:00,34.0,24.0,30.15,WNW,303,3.0,-999.0,67,-99.99,,,-99.99,,2013-03-01 05:11:00,
2013-02-28 23:22:00,33.0,23.0,30.15,West,275,2.0,-999.0,67,-99.99,,,-99.99,,2013-03-01 05:22:00,
2013-02-28 23:32:00,33.0,23.0,30.15,NW,313,3.0,-999.0,67,-99.99,,,-99.99,,2013-03-01 05:32:00,
2013-02-28 23:42:00,33.0,23.0,30.15,NW,313,3.0,-999.0,67,-99.99,,,-99.99,,2013-03-01 05:42:00,
2013-02-28 23:52:00,33.0,23.0,30.15,NW,313,3.0,-999.0,67,-99.99,,,-99.99,,2013-03-01 05:52:00,